Burlington, IA

9:12 PM CDT on April 26, 2018 (GMT -0500)
Burlington Regional

Weather History for KBRL - June, 2013

Change the Weather History Date:

Sunday, June 30, 2013

  Actual Average Record
Temperature  
Mean Temperature 72 °F 76 °F  
Max Temperature 81 °F 87 °F 100 °F (1931)
Min Temperature 62 °F 66 °F 46 °F (1943)
Degree Days  
Heating Degree Days 0 0  
Month to date heating degree days 15 9  
Since 1 June heating degree days 15 13  
Since 1 July heating degree days 5928 5600  
Cooling Degree Days 7 12  
Month to date cooling degree days 208 260  
Year to date cooling degree days 307 363  
Since 1 June cooling degree days 208 260  
Growing Degree Days 21 (Base 50)    
Moisture  
Dew Point 60 °F    
Average Humidity 69    
Maximum Humidity 93    
Minimum Humidity 45    
Precipitation  
Precipitation 0.00 in 0.14 in 1.78 in (1959)
Month to date precipitation 2.27 4.47  
Year to date precipitation 25.47 18.73  
Sea Level Pressure  
Sea Level Pressure 29.91 in    
Wind  
Wind Speed 11 mph (NNE)    
Max Wind Speed 18 mph    
Max Gust Speed 24 mph    
Visibility 10 miles    
Events      
T = Trace of Precipitation, MM = Missing Value Source: NWS Daily Summary

Daily Weather History Graph

Daily Weather History Graph

Search for Another Location

Airport or City:

Astronomy

Jun. 30, 2013 Rise Set
Actual Time 5:36 AM CDT 8:39 PM CDT
Civil Twilight 5:03 AM CDT 9:13 PM CDT
Nautical Twilight 4:20 AM CDT 9:55 PM CDT
Astronomical Twilight 3:30 AM CDT 10:45 PM CDT
Moon 12:37 AM CDT (6/30) 1:53 PM CDT (6/30)
Length of Visible Light 16h 09m
Length of Day
15h 03m
Last Quarter, 45% of the Moon is Illuminated
Jun 30
Last Quarter
Jul 8
New
Jul 15
First Quarter
Jul 22
Full
Jul 29
Last Quarter

Hourly Weather History & Observations

Time (CDT) Temp. Heat Index Dew Point Humidity Pressure Visibility Wind Dir Wind Speed Gust Speed Precip Events Conditions
12:53 AM 64.0 °F - 62.1 °F 93% 29.82 in 10.0 mi North 6.9 mph - N/A   Scattered Clouds
1:53 AM 63.0 °F - 61.0 °F 93% 29.83 in 10.0 mi North 8.1 mph - N/A   Partly Cloudy
2:53 AM 63.0 °F - 61.0 °F 93% 29.83 in 10.0 mi North 8.1 mph - N/A   Partly Cloudy
3:53 AM 63.0 °F - 61.0 °F 93% 29.84 in 10.0 mi North 8.1 mph - N/A   Overcast
4:53 AM 63.0 °F - 61.0 °F 93% 29.85 in 10.0 mi North 6.9 mph - N/A   Overcast
5:53 AM 62.1 °F - 60.1 °F 93% 29.87 in 10.0 mi North 6.9 mph - N/A   Clear
6:53 AM 63.0 °F - 60.1 °F 90% 29.88 in 10.0 mi North 8.1 mph - N/A   Clear
7:53 AM 64.9 °F - 60.1 °F 84% 29.89 in 10.0 mi NNE 12.7 mph - N/A   Partly Cloudy
8:53 AM 64.9 °F - 60.1 °F 84% 29.91 in 10.0 mi North 9.2 mph - N/A   Overcast
9:53 AM 68.0 °F - 61.0 °F 78% 29.92 in 10.0 mi NNE 10.4 mph - N/A   Overcast
10:53 AM 71.1 °F - 62.1 °F 73% 29.92 in 10.0 mi North 15.0 mph - N/A   Scattered Clouds
11:53 AM 73.9 °F - 62.1 °F 66% 29.93 in 10.0 mi North 11.5 mph - N/A   Mostly Cloudy
12:53 PM 79.0 °F - 60.1 °F 52% 29.92 in 10.0 mi NNE 16.1 mph - N/A   Partly Cloudy
1:53 PM 75.9 °F - 60.1 °F 58% 29.92 in 10.0 mi NE 9.2 mph - N/A   Overcast
2:53 PM 80.1 °F 80.7 °F 59.0 °F 48% 29.92 in 10.0 mi NNE 16.1 mph - N/A   Scattered Clouds
3:53 PM 80.1 °F 80.6 °F 57.9 °F 47% 29.92 in 10.0 mi NNE 16.1 mph 21.9 mph N/A   Partly Cloudy
4:53 PM 77.0 °F - 59.0 °F 54% 29.92 in 10.0 mi North 13.8 mph - N/A   Mostly Cloudy
5:53 PM 79.0 °F - 57.9 °F 48% 29.93 in 10.0 mi North 18.4 mph 23.0 mph N/A   Clear
6:53 PM 78.1 °F - 57.0 °F 48% 29.94 in 10.0 mi NNE 11.5 mph - N/A   Clear
7:53 PM 75.0 °F - 60.1 °F 60% 29.95 in 10.0 mi North 8.1 mph - N/A   Clear
8:53 PM 71.1 °F - 60.1 °F 68% 29.96 in 10.0 mi North 8.1 mph - N/A   Clear
9:53 PM 69.1 °F - 59.0 °F 70% 29.99 in 10.0 mi North 8.1 mph - N/A   Clear
10:53 PM 70.0 °F - 57.9 °F 65% 30.00 in 10.0 mi NE 10.4 mph - N/A   Clear
11:53 PM 68.0 °F - 57.0 °F 68% 30.01 in 10.0 mi NNE 8.1 mph - N/A   Clear